Wind_Speed
19 18 16 15 16 16 17 16 15 14 14 17 17 19 19 18 18 18 17 15 15 14 15 16 16 17 18 18 18 17 17 17 17 16 16 15 14 14 14 14 15 15 14 15
19 16 15 17 17 18 17 18 17 15 15 19 20 20 20 20 19 19 18 16 16 15 15 16 17 18 18 19 19 19 18 18 18 17 18 17 17 16 15 16 16 16 16 16
18 16 18 18 18 19 19 20 19 17 16 19 22 23 21 21 20 19 18 17 17 17 16 17 17 18 19 20 19 19 19 19 20 19 18 18 17 18 18 17 18 18 18 18
18 18 19 19 20 21 21 20 20 19 18 19 21 23 22 22 21 21 20 20 18 17 16 17 18 18 19 20 19 19 20 21 21 21 19 19 19 19 18 18 18 18 19 18
19 19 21 21 20 20 20 19 20 20 21 21 21 23 22 22 21 21 20 20 18 17 17 18 18 19 19 20 20 20 20 21 21 21 20 19 19 19 18 19 18 18 18 18
20 21 23 21 20 20 20 20 22 22 23 24 22 24 23 22 22 21 21 20 19 18 18 18 19 20 21 21 21 20 19 20 20 20 20 18 19 19 19 18 18 18 17 18
22 22 23 22 22 21 22 23 24 24 25 25 23 25 24 23 23 23 23 22 21 20 21 20 21 21 21 21 21 19 19 19 20 20 19 18 18 19 18 18 18 18 18 19
24 23 22 22 23 22 22 23 25 26 26 25 25 27 25 24 23 23 23 23 21 20 21 21 21 21 21 21 21 20 19 20 20 19 19 19 19 19 19 19 19 19 19 19
25 24 22 23 22 22 23 24 25 27 27 28 28 27 25 23 22 22 22 23 22 20 20 21 22 22 21 21 21 21 20 20 20 20 19 19 19 18 18 18 19 19 19 19
25 25 23 23 23 24 25 24 26 28 28 28 28 27 25 22 21 22 22 23 23 22 23 23 24 23 22 22 22 22 21 20 21 20 19 18 18 18 18 18 18 19 19 19
25 26 23 24 23 23 25 26 27 28 29 30 29 27 24 24 23 24 24 24 23 22 23 23 23 23 23 23 22 21 20 19 19 18 17 18 18 17 18 17 18 18 19 20
27 27 26 24 23 23 25 27 28 29 30 31 32 29 26 25 25 26 26 23 22 23 23 23 23 24 23 23 22 21 20 18 18 18 17 17 17 18 18 18 17 18 18 19
26 26 25 23 23 24 26 28 30 31 31 31 32 31 28 28 27 28 26 24 24 24 23 24 25 26 25 23 22 21 20 19 19 19 18 17 18 18 18 19 18 18 18 18
27 27 27 25 25 25 26 27 28 31 32 33 33 32 29 28 27 27 26 25 25 25 25 25 25 25 25 24 22 20 20 20 20 20 19 19 18 18 19 20 20 19 19 20
28 28 28 27 27 27 27 27 28 30 32 33 32 32 29 27 27 27 26 25 25 25 26 26 26 26 25 24 22 21 20 20 21 21 21 20 20 19 20 20 20 20 20 21
29 29 29 28 28 30 29 28 28 30 31 32 32 31 29 29 28 27 26 26 25 26 27 27 25 25 25 24 24 23 21 21 21 21 21 21 21 21 21 21 21 21 21 21
30 30 31 30 29 30 31 29 29 30 30 32 32 31 30 30 29 28 26 26 26 26 26 26 26 25 25 24 24 25 23 21 21 22 22 22 22 22 22 21 21 21 22 22
30 31 31 31 30 31 28 28 29 30 31 31 31 30 30 30 29 27 27 27 26 25 25 26 26 25 25 24 23 22 22 22 22 22 22 22 22 22 22 22 22 21 22 23
29 30 31 32 32 31 28 28 29 29 29 29 29 29 28 27 28 28 28 28 26 26 27 27 27 26 25 25 23 23 24 23 23 22 22 22 22 22 22 23 23 22 23 24
28 29 30 32 32 31 28 28 29 29 29 27 28 29 28 28 29 27 27 26 26 27 27 27 26 25 25 25 25 24 24 24 23 23 23 23 23 23 23 23 24 24 24 24
28 29 29 30 30 30 29 28 28 28 27 28 29 29 28 28 27 27 27 26 26 26 26 26 26 24 24 24 24 24 23 23 23 23 23 23 23 24 24 24 24 25 25 25
27 28 29 29 29 28 28 29 29 28 29 29 29 28 28 28 27 26 25 25 25 25 26 26 25 24 23 23 22 23 23 23 23 23 24 24 23 23 23 24 24 25 26 26
25 26 28 28 28 28 28 29 29 29 29 28 29 28 28 27 26 26 26 25 25 25 25 26 25 25 25 24 24 23 24 24 24 23 23 23 22 21 22 23 24 25 26 26
22 24 25 26 26 27 27 28 28 29 29 28 27 27 27 27 26 25 24 22 23 24 24 25 25 25 25 24 23 23 23 23 23 23 23 22 22 22 22 23 24 24 25 26
20 21 22 24 24 24 25 26 26 26 25 25 24 24 24 25 25 25 23 22 22 23 23 23 24 23 23 23 22 22 22 22 22 23 23 22 22 22 23 23 23 24 24 25
20 21 22 22 22 22 22 24 24 24 23 22 22 21 21 22 22 23 22 21 23 24 23 22 22 22 23 23 22 22 22 23 23 23 23 22 23 23 24 24 24 24 24 25
Wind_Direction
237 239 241 243 247 248 251 254 252 254 259 265 269 269 273 273 276 277 279 283 288 288 292 293 292 293 297 300 301 300 297 290 288 289 286 284 278 274 271 269 269 271 271 272
238 241 241 243 247 248 251 255 256 257 256 262 264 265 268 270 271 273 278 283 288 287 288 295 292 289 293 296 297 297 296 292 287 286 284 280 278 277 272 267 267 268 268 270
242 242 242 245 248 249 251 257 258 262 263 262 265 264 263 263 267 269 277 282 283 286 290 296 294 292 291 294 295 294 294 293 292 286 285 280 278 278 274 269 267 268 268 268
241 242 244 247 250 253 254 257 259 261 262 262 266 266 261 262 265 270 275 276 281 282 285 292 293 292 293 295 293 291 290 290 290 289 286 285 280 279 274 271 270 268 267 267
242 244 247 247 249 252 257 257 261 260 259 261 261 266 266 266 268 270 271 274 277 279 281 286 289 292 292 293 292 290 289 287 288 289 287 282 279 277 274 273 271 270 266 265
243 246 250 250 248 250 256 257 260 260 260 261 259 263 269 269 271 271 270 270 271 272 277 281 286 291 289 290 290 289 291 289 287 286 284 282 280 279 275 271 271 270 267 267
243 246 251 250 247 248 254 258 262 263 263 264 263 265 271 272 268 269 268 271 269 273 277 280 283 287 287 288 289 289 291 290 285 284 282 280 279 277 274 270 268 268 269 269
244 244 247 248 249 251 252 257 262 267 268 269 266 267 271 271 268 268 272 273 274 275 276 279 284 284 285 286 286 288 290 289 286 283 281 279 276 274 271 269 268 268 269 270
248 247 245 247 248 251 252 254 260 264 266 268 267 268 270 271 270 270 273 274 279 280 280 281 282 281 282 283 283 284 288 288 286 283 281 278 276 274 271 269 268 269 270 270
250 249 247 248 248 249 252 254 255 258 264 267 270 272 273 272 270 271 271 274 275 276 280 283 283 279 280 280 278 280 283 284 284 283 282 280 276 276 272 269 268 270 270 271
251 251 247 247 248 249 250 251 253 257 263 268 271 271 275 272 269 267 268 272 272 275 277 279 281 281 282 282 280 279 280 280 282 281 279 278 281 280 274 270 269 269 271 273
252 253 250 247 247 250 250 251 253 257 261 266 269 272 274 272 269 267 266 267 273 277 279 281 284 283 283 282 283 281 278 280 282 282 280 280 280 281 279 276 273 271 271 272
253 254 254 248 245 248 251 252 252 256 260 264 268 273 274 272 271 270 268 268 273 277 279 283 283 280 279 280 279 280 278 279 278 277 278 277 278 280 281 278 276 276 274 275
254 254 255 253 250 251 252 253 253 256 259 264 266 271 271 271 270 270 269 270 272 274 278 282 281 279 279 278 276 276 277 276 274 274 274 273 274 276 279 278 274 273 273 275
252 253 255 257 255 253 253 254 254 257 261 265 269 271 273 271 271 270 267 268 269 271 274 277 277 278 278 278 276 275 275 275 273 273 273 275 273 274 274 275 272 271 272 274
253 254 257 258 257 255 255 255 257 259 262 265 268 270 272 271 270 268 265 267 267 270 273 275 277 277 276 276 273 273 274 273 273 273 273 276 276 276 276 275 273 271 273 275
253 255 256 258 258 259 257 258 259 260 261 262 265 269 270 269 270 270 268 267 267 270 273 275 276 277 276 275 275 276 272 271 271 271 271 273 275 275 275 274 274 274 274 275
253 254 255 258 259 261 262 263 263 262 261 261 264 268 269 270 270 268 266 266 267 271 274 276 276 276 275 274 275 272 273 273 273 273 271 271 272 272 272 272 272 274 275 274
253 254 257 259 261 263 265 263 263 265 262 262 264 267 269 271 271 271 271 269 269 271 272 273 273 273 272 270 270 272 273 271 271 271 271 270 270 271 271 271 272 273 275 276
252 253 256 259 262 264 263 261 262 263 264 262 264 266 270 271 271 270 270 268 267 267 271 272 271 270 269 269 269 270 270 269 269 269 270 270 270 270 270 270 273 274 275 277
250 250 253 256 260 262 262 262 262 262 265 264 266 269 270 271 273 271 269 268 267 267 268 271 270 269 268 268 267 268 268 267 267 268 269 270 270 270 270 270 273 275 275 276
253 252 252 254 258 260 261 261 262 265 266 266 267 268 270 271 273 272 268 266 264 265 266 269 271 270 267 268 269 267 266 266 267 268 270 270 269 268 269 270 273 275 275 276
255 255 253 256 260 262 264 264 264 266 267 269 267 268 272 271 269 268 266 264 260 262 265 266 267 269 266 265 266 265 265 265 266 268 269 270 268 269 270 273 275 275 276 276
256 255 255 258 259 260 262 262 265 267 270 270 268 268 271 268 266 264 263 261 260 262 266 267 266 267 267 266 263 264 266 265 265 265 268 270 269 274 277 276 278 278 279 279
256 256 258 260 263 265 263 263 266 268 272 272 271 269 268 264 260 260 261 261 263 264 266 267 267 267 265 266 266 266 267 268 268 269 269 270 270 275 280 284 283 281 281 282
257 259 261 262 265 267 267 265 267 269 269 271 274 271 266 263 260 259 259 260 264 266 267 268 270 269 268 267 267 266 266 268 268 269 270 272 274 276 278 281 283 283 282 281
Height
5856 5859 5860 5862 5862 5863 5863 5864 5865 5866 5866 5864 5864 5864 5864 5863 5864 5864 5863 5862 5862 5862 5862 5861 5860 5858 5858 5856 5855 5854 5853 5852 5851 5850 5849 5847 5846 5846 5846 5846 5846 5846 5846 5846
5852 5854 5856 5856 5857 5857 5858 5859 5860 5861 5861 5860 5859 5860 5860 5859 5859 5859 5858 5858 5858 5857 5857 5856 5856 5854 5853 5852 5851 5850 5849 5847 5846 5845 5844 5843 5842 5842 5842 5842 5841 5842 5842 5841
5847 5851 5850 5850 5851 5853 5854 5855 5855 5856 5856 5856 5855 5855 5855 5854 5854 5854 5854 5853 5854 5853 5852 5851 5851 5850 5849 5848 5847 5845 5844 5843 5841 5839 5838 5838 5837 5837 5837 5837 5837 5837 5837 5837
5842 5844 5845 5845 5847 5848 5849 5850 5850 5851 5851 5851 5851 5849 5850 5849 5849 5849 5849 5849 5849 5848 5848 5847 5846 5846 5845 5844 5842 5841 5839 5838 5836 5834 5833 5832 5832 5832 5832 5832 5832 5832 5832 5832
5838 5839 5839 5840 5842 5842 5843 5845 5845 5845 5845 5845 5845 5843 5844 5844 5843 5844 5844 5844 5844 5844 5843 5843 5842 5841 5840 5839 5837 5835 5834 5832 5831 5829 5828 5827 5827 5827 5826 5827 5827 5826 5826 5827
5832 5833 5833 5835 5836 5837 5838 5839 5839 5839 5839 5838 5840 5838 5838 5839 5838 5838 5839 5839 5839 5839 5838 5838 5837 5836 5835 5833 5831 5829 5827 5826 5825 5823 5822 5822 5822 5821 5821 5821 5821 5821 5821 5821
5826 5827 5828 5829 5830 5831 5832 5832 5832 5831 5832 5832 5834 5832 5833 5834 5833 5833 5833 5834 5833 5833 5832 5832 5831 5830 5829 5827 5825 5823 5822 5821 5819 5818 5817 5817 5816 5816 5815 5815 5816 5816 5816 5816
5818 5822 5823 5823 5824 5825 5826 5826 5826 5826 5825 5826 5827 5825 5828 5828 5828 5827 5827 5827 5826 5826 5826 5825 5825 5824 5823 5822 5820 5819 5818 5816 5814 5813 5812 5811 5811 5810 5810 5810 5810 5810 5810 5810
5811 5815 5817 5817 5818 5819 5819 5819 5820 5820 5819 5819 5819 5820 5821 5822 5822 5821 5820 5820 5820 5820 5819 5819 5819 5818 5817 5816 5815 5814 5813 5811 5809 5808 5807 5805 5805 5804 5804 5804 5804 5804 5804 5804
5805 5807 5810 5811 5812 5813 5814 5814 5814 5813 5812 5812 5813 5814 5816 5816 5815 5815 5815 5815 5815 5815 5814 5813 5812 5810 5810 5810 5809 5808 5807 5805 5804 5802 5801 5800 5799 5798 5798 5798 5798 5798 5798 5798
5798 5800 5803 5804 5805 5806 5807 5807 5807 5807 5806 5806 5806 5809 5810 5810 5810 5810 5809 5809 5808 5809 5808 5807 5806 5804 5804 5804 5803 5801 5800 5799 5798 5796 5795 5794 5793 5793 5792 5792 5792 5792 5792 5792
5791 5793 5795 5798 5799 5800 5800 5800 5800 5801 5800 5800 5799 5803 5802 5803 5802 5803 5803 5802 5802 5802 5801 5800 5799 5798 5797 5796 5795 5794 5794 5793 5792 5790 5789 5789 5788 5787 5787 5786 5786 5786 5786 5786
5784 5786 5788 5790 5794 5794 5793 5793 5793 5793 5793 5793 5793 5796 5795 5795 5795 5795 5796 5796 5795 5795 5795 5794 5793 5791 5790 5789 5788 5788 5787 5787 5786 5785 5784 5783 5782 5781 5781 5781 5781 5780 5780 5780
5777 5779 5781 5783 5784 5784 5785 5785 5786 5786 5785 5785 5786 5787 5788 5787 5788 5788 5788 5788 5788 5788 5787 5786 5786 5784 5784 5783 5782 5781 5781 5780 5780 5779 5778 5777 5777 5776 5776 5775 5775 5774 5774 5773
5771 5772 5773 5775 5776 5776 5777 5778 5778 5778 5778 5778 5779 5779 5780 5780 5780 5781 5781 5781 5780 5780 5780 5779 5778 5777 5777 5776 5776 5775 5774 5773 5773 5772 5772 5772 5771 5770 5770 5769 5769 5768 5768 5767
5763 5764 5766 5767 5768 5768 5768 5770 5770 5771 5771 5770 5771 5771 5772 5772 5772 5772 5773 5773 5772 5772 5772 5771 5769 5769 5769 5769 5769 5769 5768 5767 5766 5766 5765 5765 5764 5764 5763 5763 5762 5761 5761 5760
5755 5756 5758 5759 5760 5759 5761 5763 5763 5763 5762 5762 5762 5764 5764 5763 5764 5764 5764 5764 5764 5764 5764 5763 5762 5762 5762 5761 5761 5761 5760 5760 5760 5759 5759 5758 5757 5757 5756 5755 5755 5754 5754 5754
5746 5747 5748 5749 5751 5751 5756 5754 5753 5753 5753 5754 5754 5754 5755 5755 5755 5756 5756 5756 5756 5756 5756 5756 5755 5755 5754 5754 5753 5752 5753 5753 5753 5752 5751 5751 5750 5750 5749 5749 5748 5747 5747 5746
5738 5739 5740 5741 5741 5743 5746 5745 5745 5745 5745 5746 5746 5747 5747 5747 5747 5748 5748 5748 5748 5748 5748 5748 5748 5747 5747 5747 5747 5746 5745 5745 5745 5745 5744 5743 5743 5743 5742 5742 5741 5740 5740 5739
5729 5730 5732 5732 5733 5734 5738 5737 5736 5737 5738 5739 5738 5738 5739 5739 5739 5740 5739 5739 5739 5739 5740 5739 5739 5739 5739 5739 5739 5739 5738 5738 5738 5738 5737 5736 5736 5735 5735 5734 5734 5733 5732 5731
5721 5722 5723 5724 5724 5726 5728 5728 5729 5730 5731 5730 5730 5730 5730 5730 5731 5731 5730 5730 5730 5731 5732 5731 5731 5731 5731 5731 5732 5731 5731 5730 5730 5730 5729 5729 5728 5728 5727 5727 5726 5725 5725 5724
5712 5714 5715 5716 5717 5720 5719 5720 5721 5722 5721 5721 5722 5722 5722 5722 5721 5722 5722 5722 5722 5723 5723 5723 5723 5723 5724 5724 5724 5723 5723 5723 5723 5722 5721 5721 5721 5720 5720 5719 5719 5717 5717 5716
5704 5706 5707 5709 5711 5711 5711 5711 5712 5712 5712 5713 5713 5713 5713 5713 5714 5714 5714 5714 5714 5715 5715 5715 5716 5716 5716 5715 5715 5715 5715 5715 5715 5715 5714 5713 5713 5713 5712 5712 5711 5710 5709 5708
5697 5698 5699 5700 5701 5702 5702 5702 5703 5704 5704 5704 5704 5704 5704 5704 5705 5706 5706 5705 5706 5707 5707 5707 5708 5708 5707 5706 5707 5707 5707 5707 5707 5707 5707 5707 5706 5706 5704 5703 5703 5702 5701 5700
5690 5691 5692 5693 5693 5693 5694 5695 5696 5696 5696 5695 5695 5695 5695 5695 5696 5697 5698 5698 5698 5699 5700 5700 5700 5700 5700 5700 5700 5700 5699 5700 5700 5700 5700 5699 5699 5699 5697 5696 5695 5694 5693 5691
5684 5685 5685 5685 5686 5686 5686 5687 5688 5688 5687 5687 5687 5686 5686 5687 5687 5688 5689 5690 5691 5692 5692 5691 5692 5692 5692 5692 5692 5692 5692 5692 5693 5693 5693 5692 5692 5691 5690 5689 5688 5686 5684 5683